User: anonymous   Login
Location: Albany
(35.0000°S, 118.0000°E)
Time: 13:53:34
(UTC-04:00)
Language:

SJ-6B - Orbit

View from above orbital plane
View from above orbital plane
View from above satellite
View from above satellite

Ground track
Ground track

The orbit data is extracted from the following two-line orbital elements,

1 28415U 04035C   14303.00744377  .00004206  00000-0  30690-3 0  3329
2 28415 097.8022 308.5151 0058299 134.1420 226.4621 15.02889703553998
Epoch (UTC): 30 October 2014 00:10:43
Eccentricity: 0.0058299
inclination: 97.8022°
perigee height: 517 km
apogee height: 598 km
right ascension of ascending node: 308.5151°
argument of perigee: 134.1420°
revolutions per day: 15.02889703
mean anomaly at epoch: 226.4621°
orbit number at epoch: 55399

The dashed part of the orbit path shows where the satellite is in the earth's shadow,  

DLR